This is the latest recevied weather packets stored in our database for station/object W0RMT-13. If no packets are shown the sender has not sent any weather packets the latest 10 day(s).
| Time | Temp. | Humidity | Pressure | Rain* | Wind** | Luminosity | Snow |
|---|---|---|---|---|---|---|---|
| 1777401837 | 10.56° C | 63% | 1015.8 hPa | 0 mm | - | 651 W/m² | - |
| 1777401147 | 10.56° C | 65% | 1015.4 hPa | 0 mm | - | 229 W/m² | - |
| 1777400503 | 10° C | 65% | 1015.8 hPa | 0 mm | - | 216 W/m² | - |
| 1777399951 | 9.44° C | 68% | 1015.8 hPa | 0 mm | - | 793 W/m² | - |
| 1777399222 | 9.44° C | 69% | 1015.4 hPa | 0 mm | - | 288 W/m² | - |
| 1777398587 | 8.89° C | 67% | 1015.4 hPa | 0 mm | - | 655 W/m² | - |
| 1777397934 | 8.33° C | 73% | 1015.4 hPa | 0 mm | - | 306 W/m² | - |
| 1777397300 | 8.33° C | 73% | 1015.4 hPa | 0 mm | - | 485 W/m² | - |
| 1777396645 | 8.33° C | 74% | 1015.8 hPa | 0 mm | - | 293 W/m² | - |
| 1777396025 | 7.78° C | 72% | 1015.4 hPa | 0 mm | - | 598 W/m² | - |
| 1777395356 | 7.22° C | 77% | 1015.4 hPa | 0 mm | - | 615 W/m² | - |
| 1777394666 | 7.22° C | 78% | 1015.4 hPa | 0 mm | - | 174 W/m² | - |
| 1777393979 | 7.78° C | 79% | 1015.4 hPa | 0 mm | - | 164 W/m² | - |
| 1777393331 | 7.78° C | 79% | 1015.4 hPa | 0 mm | - | 159 W/m² | - |
| 1777392721 | 8.33° C | 76% | 1015 hPa | 0 mm | - | 184 W/m² | - |
| 1777392008 | 8.33° C | 75% | 1015 hPa | 0 mm | - | 263 W/m² | - |
| 1777391468 | 8.33° C | 74% | 1015 hPa | 0 mm | - | 216 W/m² | - |
| 1777390765 | 8.33° C | 78% | 1014.7 hPa | 0 mm | - | 273 W/m² | - |
| 1777390050 | 7.78° C | 76% | 1014.7 hPa | 0 mm | - | 163 W/m² | - |
| 1777389355 | 7.22° C | 79% | 1014.7 hPa | 0 mm | - | 200 W/m² | - |
| 1777388691 | 6.11° C | 79% | 1014.2 hPa | 0 mm | - | 323 W/m² | - |
| 1777388103 | 5° C | 86% | 1014.2 hPa | 0 mm | - | 205 W/m² | - |
| 1777387384 | 4.44° C | 90% | 1014.2 hPa | 0 mm | - | 157 W/m² | - |
| 1777386716 | 3.89° C | 94% | 1014.2 hPa | 0 mm | - | 131 W/m² | - |
| 1777386083 | 3.33° C | 95% | 1014.7 hPa | 0 mm | - | 119 W/m² | - |
* Rain latest hour (hover to see other rain measurements)
** Current wind speed in m/s (hover to see current wind gust speed)